Theta_e
352 353 352 353 353 355 354 352 349 348 349 349 350 349 350 350 350 349 348 348 348 349 350 350 350 350 350 349 343 344 342 342 343 345 346 345 350 354 360 359 358 357 356 356 355 355 355 355 355 356 355 355 356 356 357 357 357 359 360 360 360 361 361 362 363 364 364 365 366 366 367 367 367 367 367 367 367 367 366 366 366 365 365 366 366
353 352 352 351 352 354 355 354 351 348 348 348 350 349 349 349 348 348 347 347 348 349 351 347 346 344 344 344 344 344 343 341 341 343 346 347 346 351 361 360 359 357 357 357 356 356 357 357 357 357 357 357 357 357 358 359 359 360 360 361 361 362 363 363 364 365 366 366 366 367 367 368 368 368 368 368 368 368 368 368 367 367 367 367 367
351 350 351 351 351 352 353 353 350 348 348 347 349 349 349 351 349 349 348 348 349 347 352 344 340 339 344 342 344 345 343 341 341 343 346 347 348 348 357 361 360 359 359 358 357 357 358 358 358 358 358 358 358 358 359 360 361 362 362 363 363 364 365 365 366 366 366 367 367 367 368 368 368 368 368 369 369 369 369 369 369 368 368 368 367
352 349 350 350 350 351 351 349 347 347 347 347 347 355 358 352 352 354 354 353 352 350 350 339 336 337 342 341 343 344 342 341 340 342 344 345 345 348 349 356 361 360 360 360 359 359 359 359 359 359 359 360 361 362 362 363 363 363 364 365 365 366 366 366 366 366 367 367 368 368 368 369 369 369 370 369 370 370 369 369 369 369 369 369 368
351 351 354 348 348 349 348 349 348 349 355 358 356 351 348 348 347 351 349 354 350 348 353 344 334 336 339 339 342 344 343 341 342 342 342 344 345 347 349 352 352 361 360 361 361 361 361 361 361 361 361 362 362 363 364 364 365 365 365 366 367 367 367 367 367 367 368 368 369 369 369 370 370 370 370 370 370 370 370 369 369 369 369 369 368
351 353 354 349 350 353 351 353 356 359 354 354 348 350 349 350 349 351 358 352 347 346 346 342 334 334 336 338 340 343 344 343 344 342 342 342 344 347 348 349 351 352 356 362 361 362 362 362 362 363 363 363 364 365 365 366 366 366 367 367 367 367 367 368 368 368 369 369 369 370 370 370 370 371 371 370 370 370 370 370 370 369 369 369 368
355 354 354 354 352 352 356 356 358 359 357 357 350 350 352 352 358 347 348 348 350 349 347 343 336 333 334 336 339 342 345 345 344 342 341 342 343 345 348 350 351 353 355 353 363 363 363 363 364 364 364 365 366 366 367 367 367 367 367 366 367 367 368 369 369 370 370 369 370 370 370 370 371 371 371 371 371 370 370 369 369 368 368 368 368
361 357 355 354 353 352 353 360 361 360 360 357 356 353 352 352 357 353 345 347 352 345 347 341 338 335 335 335 337 344 342 343 342 341 341 342 341 343 346 348 351 352 359 354 354 359 364 364 365 364 365 365 366 367 367 368 367 367 368 368 368 369 370 370 371 370 370 370 370 371 372 372 372 372 371 371 371 370 369 368 368 368 368 368 368
362 360 355 353 354 355 357 359 364 361 358 356 354 358 352 350 351 361 349 346 346 345 345 345 341 337 333 335 337 342 338 341 343 341 343 340 341 342 344 346 350 359 355 355 353 354 361 365 366 366 366 366 366 366 367 368 368 369 369 370 370 370 371 371 371 370 371 371 372 372 373 373 372 372 372 372 371 370 369 368 367 367 368 368 367
360 359 357 360 356 356 356 358 363 359 356 356 353 356 357 353 353 353 354 346 345 346 346 345 343 337 335 336 338 338 337 339 343 353 343 341 342 342 344 345 348 350 353 354 353 352 353 359 366 367 367 367 367 367 368 368 369 370 369 370 371 372 372 372 372 371 371 372 372 373 373 373 373 372 372 370 370 370 368 367 367 367 367 367 366
362 362 357 356 355 357 355 358 362 355 355 354 352 357 360 357 356 354 354 352 350 349 347 346 344 345 341 337 337 337 337 339 344 345 344 343 344 347 347 346 347 349 351 353 352 351 351 351 355 361 363 368 369 370 370 369 370 370 370 370 371 371 372 373 373 372 372 372 373 372 373 373 373 372 371 370 369 368 367 366 367 367 366 366 365
359 358 359 359 356 357 360 361 359 354 352 352 351 353 358 357 357 360 353 354 354 351 346 344 344 341 348 345 339 337 335 343 341 341 344 344 345 349 348 349 348 349 350 353 353 351 350 350 355 354 358 361 367 370 372 372 371 370 371 371 371 370 369 371 372 370 371 373 372 373 373 372 372 371 370 369 368 365 367 367 366 365 365 365 365
361 359 360 366 358 359 360 358 357 356 355 353 355 357 362 358 356 356 357 351 351 351 345 349 339 336 339 338 340 340 350 343 337 336 340 340 339 346 347 348 349 349 351 354 354 351 350 349 349 351 352 352 355 364 369 372 371 369 369 369 370 370 372 373 373 373 372 372 373 372 371 371 370 369 369 368 367 367 368 366 365 365 365 365 364
362 359 360 357 356 360 361 357 358 357 360 360 360 366 358 356 354 349 353 353 349 352 348 341 338 332 334 334 340 338 343 342 336 334 336 336 336 341 340 342 345 347 349 352 354 354 352 351 350 349 349 349 350 351 353 358 364 368 368 368 370 371 372 374 374 375 375 373 373 372 371 370 370 369 368 367 368 368 367 366 365 365 364 364 364
360 361 359 360 359 358 359 358 358 362 354 352 355 355 357 357 354 349 347 350 353 357 352 345 336 343 341 334 329 331 335 340 344 343 342 344 335 337 339 338 338 339 341 344 349 353 355 354 351 350 349 349 351 352 355 361 361 367 367 367 367 370 372 374 375 374 372 371 372 372 371 370 369 368 368 367 367 367 366 365 365 364 364 364 365
361 362 361 359 359 358 358 359 357 362 355 353 353 355 353 355 355 358 349 346 351 350 360 354 346 338 334 333 332 334 325 327 336 339 342 344 342 332 337 337 339 339 339 339 340 343 348 353 352 352 353 354 354 355 358 359 364 371 371 367 365 366 370 373 372 371 371 371 372 371 370 369 368 368 367 367 366 366 365 364 364 363 364 365 365
361 362 362 359 358 357 356 357 359 360 359 356 356 356 355 355 355 353 350 347 348 349 353 361 354 347 342 336 330 326 327 327 336 333 343 343 348 342 345 340 334 333 339 337 340 339 340 345 347 350 352 352 352 353 356 360 363 370 369 370 374 372 371 373 369 369 371 371 371 371 369 369 368 367 367 366 366 365 365 364 364 363 365 365 365
359 359 361 363 358 357 356 356 357 359 361 359 358 356 354 353 355 354 354 354 351 346 347 355 357 356 347 336 334 328 330 334 331 326 338 346 348 341 343 341 338 340 340 338 338 339 344 342 343 345 348 350 352 354 357 360 368 365 368 363 376 375 371 369 369 370 371 371 371 370 368 368 368 367 366 365 365 365 364 364 363 364 365 364 364
358 358 363 362 359 358 356 357 358 360 365 358 355 356 356 354 359 356 355 359 352 345 346 351 350 351 356 352 354 350 343 336 331 336 326 332 337 337 339 341 340 341 340 338 343 343 346 350 346 346 348 352 354 358 357 359 367 370 370 367 371 374 369 370 369 370 370 371 369 368 367 367 367 367 365 365 365 365 363 363 364 364 365 364 364
356 357 361 362 360 359 358 358 358 359 363 359 356 356 360 362 360 357 360 358 353 347 347 350 346 347 355 350 351 354 348 346 343 334 331 327 330 336 340 340 343 343 346 341 345 343 343 346 347 348 353 356 361 362 360 359 363 370 370 369 368 370 371 368 368 371 370 370 369 367 367 366 366 365 365 365 365 364 364 364 364 364 363 364 362
356 358 358 363 365 361 359 357 357 356 362 362 358 359 357 355 353 352 349 351 356 358 350 347 348 347 345 345 346 349 346 346 345 340 332 329 327 333 334 338 341 342 347 344 342 345 350 347 350 352 355 360 359 361 361 361 362 360 364 366 368 372 369 368 366 367 371 370 369 367 367 366 366 365 365 364 364 363 363 363 363 362 361 362 361
355 357 357 361 363 361 360 360 359 358 364 357 356 356 357 355 354 354 354 353 355 356 351 350 351 350 349 346 343 342 341 344 343 342 340 333 329 330 333 334 335 338 342 344 348 347 346 347 351 351 353 357 359 359 360 361 365 366 361 365 369 371 371 367 366 366 370 369 368 366 366 365 365 365 365 364 364 363 363 362 361 361 361 360 360
354 357 358 359 361 363 361 360 361 364 365 356 354 355 357 356 358 356 358 354 354 354 353 354 354 352 353 348 346 345 340 341 339 340 339 334 333 332 336 340 340 338 338 347 352 349 346 346 346 349 353 355 356 359 359 357 363 364 365 364 366 369 369 368 366 367 366 366 365 366 365 365 364 364 364 363 363 362 363 361 359 359 359 357 359
354 355 356 358 360 360 364 361 362 360 361 357 356 357 357 357 355 356 355 357 356 357 353 352 352 349 350 351 349 349 347 345 343 342 339 338 335 334 337 338 337 337 340 344 351 350 347 345 346 350 354 354 356 358 359 361 361 368 365 365 364 366 367 368 368 366 365 365 366 365 363 363 364 363 363 362 362 361 362 359 357 358 356 356 358
352 353 355 356 358 358 359 358 357 360 360 358 358 357 356 355 354 357 357 354 357 356 353 353 353 351 350 352 351 350 348 347 347 343 343 343 341 338 340 341 336 336 340 345 343 349 350 351 348 348 352 354 356 356 354 355 356 363 368 360 362 363 365 366 368 368 366 365 367 366 365 363 363 363 362 361 361 361 360 357 356 356 355 357 358
352 352 355 357 358 358 360 359 358 359 360 359 359 356 356 354 355 355 357 355 355 356 354 357 355 355 354 351 350 349 348 348 347 345 342 340 339 339 338 337 341 339 341 343 346 344 350 352 348 348 350 350 350 353 353 354 356 361 365 360 355 357 360 361 366 368 367 366 366 366 363 362 362 362 361 361 361 359 357 355 357 356 355 357 356
350 353 355 355 356 356 356 357 356 357 361 361 362 359 361 357 359 357 358 357 356 357 356 358 358 356 354 351 352 352 350 349 347 345 343 342 341 340 338 334 335 338 341 343 345 344 344 347 348 347 347 350 351 351 353 353 358 361 363 359 358 356 356 358 361 364 366 367 366 366 365 363 362 362 361 360 360 357 355 354 356 355 355 354 353
352 353 354 355 353 354 356 356 356 357 361 361 360 360 360 358 357 358 357 364 357 357 357 358 358 357 354 352 350 350 351 351 351 349 348 347 345 343 342 339 335 333 335 338 340 341 347 344 347 349 350 350 352 355 360 361 359 363 365 358 356 354 355 355 356 357 359 361 365 368 365 363 363 362 360 359 358 355 354 354 356 355 353 351 352
353 356 353 354 353 353 353 355 356 357 361 361 361 359 358 360 359 357 357 358 358 356 357 357 357 356 354 353 352 350 350 353 353 352 350 350 350 346 346 343 342 336 331 331 332 338 344 352 347 345 354 353 353 356 358 358 360 361 357 356 355 354 353 351 352 352 353 354 356 362 363 363 361 359 358 357 355 354 353 355 355 353 350 350 350
355 355 355 353 354 360 353 355 358 358 361 362 361 359 358 357 357 357 358 357 356 356 358 358 356 355 356 355 353 350 352 352 350 351 352 350 349 350 347 348 345 340 336 333 335 340 343 349 349 345 351 354 356 357 358 358 360 360 357 353 352 354 350 350 351 350 350 350 352 357 360 361 360 360 358 355 351 352 350 352 352 348 348 348 348
356 353 353 352 353 355 354 354 358 359 361 361 361 359 358 357 357 356 357 356 355 354 356 358 358 356 354 353 352 351 351 351 353 353 352 352 350 349 347 350 348 346 343 341 335 340 349 345 349 352 352 353 356 356 356 354 355 353 350 349 349 351 350 351 350 349 348 347 349 352 354 357 359 359 356 351 352 350 349 348 346 346 347 346 345
353 353 352 351 353 354 355 354 356 359 360 361 361 359 358 358 358 357 357 358 357 356 356 358 360 358 354 352 352 352 353 353 353 353 352 352 352 349 349 348 347 349 349 343 340 341 348 351 351 353 356 355 356 354 352 351 354 355 351 349 351 352 353 353 352 350 348 347 347 348 348 351 355 355 354 352 351 350 349 346 344 344 344 343 340
352 351 351 351 352 355 354 355 355 356 358 359 360 360 358 358 359 359 358 357 356 355 356 356 358 357 355 354 354 356 356 355 354 353 350 349 349 349 350 348 346 347 345 343 340 341 346 352 353 354 356 356 353 354 352 352 352 352 353 351 351 349 348 351 352 350 347 346 345 345 345 347 349 350 351 351 350 348 347 344 341 339 338 338 335
351 352 351 353 353 353 353 354 354 355 357 358 359 359 358 358 358 361 359 357 356 356 354 354 356 359 355 352 352 352 354 353 351 352 351 351 349 349 347 350 346 345 346 344 343 341 342 345 347 351 351 357 351 354 352 352 352 355 351 351 353 351 348 354 351 352 347 345 343 343 343 344 345 345 347 350 348 346 344 340 336 333 334 333 330
351 352 352 351 352 353 352 353 353 353 354 357 358 358 358 358 357 359 359 356 354 353 351 353 357 354 351 350 351 352 353 349 350 351 351 349 351 350 351 350 346 346 348 348 344 342 342 342 344 346 348 351 350 349 352 353 354 353 350 351 352 354 359 356 354 355 347 343 343 342 342 342 342 343 344 346 347 344 341 336 330 328 329 327 326
349 351 352 351 351 353 353 353 353 353 353 355 356 357 356 357 357 357 353 351 351 350 350 350 351 352 349 348 349 353 351 347 347 347 347 348 347 348 349 349 349 349 349 348 347 344 341 339 341 344 347 346 346 351 353 353 351 352 352 353 355 355 354 354 353 355 350 343 344 342 342 341 340 340 340 341 341 337 333 329 326 324 324 325 326
345 346 350 351 350 352 353 353 354 354 355 355 354 355 356 357 357 356 352 350 349 349 349 349 357 353 350 348 348 350 348 345 346 346 346 346 348 349 349 349 350 349 349 347 346 344 341 339 340 342 345 346 349 350 351 348 350 351 351 350 353 354 355 354 358 360 342 340 342 342 340 341 340 338 337 337 336 332 329 327 326 325 323 322 323
348 346 344 348 351 351 352 353 354 355 355 354 353 353 353 353 354 353 353 351 350 349 349 349 350 353 350 348 348 349 347 345 345 346 346 347 348 350 352 350 350 349 346 346 347 345 343 341 340 341 342 346 346 346 348 349 348 349 349 349 350 352 353 352 353 362 361 354 349 347 340 338 338 335 336 335 332 329 328 327 326 324 322 321 320
346 346 348 350 351 350 351 352 353 354 354 355 354 352 352 351 351 351 350 349 348 349 349 349 352 353 350 349 348 349 348 347 346 346 346 347 352 351 352 352 351 349 347 346 346 346 345 344 344 344 345 346 346 345 346 349 351 351 347 346 346 348 350 347 349 354 357 356 351 347 347 344 342 339 332 331 330 328 327 327 326 325 324 321 318
352 350 349 350 351 352 350 351 356 355 353 353 353 352 351 350 350 349 348 348 348 347 346 349 352 353 351 350 349 349 348 347 346 346 347 345 346 348 349 347 348 347 346 347 347 345 343 344 343 343 341 342 343 345 349 347 344 342 347 348 345 346 348 345 348 349 350 353 351 352 351 346 342 339 333 331 331 329 328 328 328 328 327 323 320
357 354 354 350 350 352 353 353 354 354 353 352 353 355 352 350 351 350 349 349 348 346 346 348 349 352 350 350 351 351 353 357 357 355 354 355 351 349 350 347 346 344 344 345 346 345 344 343 344 345 344 344 344 344 344 342 343 343 344 346 347 348 348 347 348 350 351 350 350 351 352 351 343 340 336 332 330 330 330 329 328 331 329 324 321
355 356 353 352 352 352 352 349 346 343 341 343 346 347 351 356 353 354 353 352 349 346 345 345 347 351 351 350 353 359 359 360 361 360 360 360 361 358 354 349 348 347 346 346 345 345 343 343 344 345 344 345 345 345 344 345 347 346 346 345 344 345 344 344 346 346 350 350 347 345 347 353 347 342 336 334 333 336 330 329 327 330 330 325 323
354 356 352 350 351 352 348 341 337 335 334 335 336 335 336 344 353 351 353 351 348 348 349 347 346 351 350 350 348 356 358 360 356 358 356 356 357 358 358 358 357 353 348 348 348 346 342 343 345 346 346 346 348 348 347 347 347 345 344 344 344 344 343 342 341 347 353 349 346 342 343 349 350 344 342 338 336 333 331 328 330 330 327 325 323
353 353 352 351 351 345 338 335 331 328 327 329 326 330 334 335 343 349 349 353 351 350 350 350 350 351 349 350 350 351 349 352 350 343 347 351 350 351 354 356 356 355 351 348 346 345 346 346 343 344 345 344 347 348 347 345 344 344 344 343 342 343 344 343 343 342 345 352 344 342 342 346 352 350 346 345 341 335 333 328 328 328 326 324 324
350 348 348 350 344 337 333 329 326 325 324 325 324 326 329 330 333 346 345 350 349 349 350 349 348 344 344 342 347 349 345 345 340 333 333 334 340 347 351 353 354 352 343 342 346 348 348 345 344 343 345 346 343 345 349 348 349 343 344 343 344 345 345 343 344 345 347 349 345 343 342 344 348 350 348 349 347 341 336 330 328 328 325 324 323
346 347 347 340 336 332 328 325 323 323 323 323 322 324 325 328 331 338 342 348 351 348 347 344 343 345 345 345 345 337 332 331 331 330 329 328 332 337 341 343 345 349 343 341 342 344 344 345 344 341 344 347 344 346 349 349 345 344 343 342 344 343 343 343 346 347 349 352 345 343 340 342 346 346 345 348 342 346 339 330 326 326 325 323 323
347 346 344 339 334 330 327 324 323 320 319 319 320 323 324 328 333 345 343 348 346 344 343 343 343 343 344 341 335 330 327 328 331 331 329 331 332 336 336 335 337 340 335 334 333 337 340 339 339 340 341 343 344 345 346 348 347 347 346 344 345 345 347 348 347 349 349 348 345 341 334 340 345 341 342 335 330 329 328 325 324 324 324 323 322
344 344 342 335 329 326 325 324 322 320 320 316 318 321 323 328 340 350 348 344 340 340 342 343 343 338 330 328 328 329 328 327 329 328 332 334 329 329 330 331 335 335 332 337 331 335 339 335 337 339 338 336 334 337 338 338 342 344 346 348 347 345 342 340 339 342 343 336 332 333 332 336 337 333 336 335 331 328 327 327 324 324 323 322 322
338 336 333 330 330 327 325 324 321 319 319 316 314 316 319 323 335 340 342 342 342 341 342 342 339 333 332 331 330 330 328 327 326 321 326 332 326 328 329 331 332 331 329 330 331 334 332 329 328 329 329 329 329 328 327 330 338 342 343 341 338 340 338 336 337 338 335 329 330 329 328 331 333 330 331 339 334 331 328 327 327 323 321 321 320
331 331 330 329 329 329 327 324 323 319 317 316 312 312 315 321 333 336 337 336 337 341 341 339 338 339 340 340 336 329 328 327 321 321 325 330 326 329 331 330 329 328 327 328 331 337 336 334 332 331 331 331 331 332 332 331 332 337 333 330 332 336 336 335 333 337 330 327 328 330 331 326 330 329 328 337 335 332 328 329 330 325 322 321 320
331 331 331 328 327 328 328 326 325 318 318 317 312 311 313 317 327 329 330 328 327 329 335 337 337 337 337 338 336 331 327 323 316 317 321 330 326 328 330 328 327 327 326 326 331 336 335 333 333 334 333 333 332 330 332 334 335 335 330 329 330 332 332 330 328 330 331 323 326 329 328 323 327 326 327 330 327 331 334 333 333 328 327 325 325
Wind_Speed
2 2 2 3 3 4 4 4 4 5 3 4 4 4 4 5 6 6 6 6 5 6 7 7 6 5 6 4 6 6 5 3 3 3 3 4 4 6 11 10 9 9 8 8 8 8 8 9 9 9 9 8 8 8 8 8 8 9 9 9 10 11 11 11 12 12 13 13 14 14 14 14 15 14 14 15 16 17 18 18 18 17 17 17 17
2 2 2 3 4 4 4 5 5 5 4 5 6 5 6 5 6 6 6 7 6 7 5 7 7 5 5 5 7 7 6 6 5 5 3 3 3 3 9 9 9 8 8 8 8 8 8 8 9 9 9 9 9 9 9 9 10 10 10 10 11 11 12 12 13 13 14 14 14 14 14 14 15 15 15 16 17 17 18 18 18 18 18 17 17
3 3 2 3 4 4 6 5 5 6 5 6 5 6 7 6 7 6 5 5 5 5 6 7 7 3 3 6 6 6 6 5 5 5 5 4 3 3 3 9 9 8 8 8 8 8 8 9 9 9 9 9 10 10 10 11 11 11 11 11 11 12 12 12 13 14 14 14 14 14 14 14 14 15 16 16 16 16 17 17 17 18 18 18 17
2 2 3 4 5 6 6 5 6 6 5 7 7 6 4 2 4 1 1 1 2 1 5 6 5 3 3 4 3 5 4 5 5 5 5 5 5 4 3 3 8 9 8 9 8 9 9 10 10 10 11 11 11 11 12 12 12 12 12 12 12 12 13 13 13 14 14 14 13 13 14 14 15 15 15 16 16 16 16 16 16 17 16 17 17
4 4 5 6 6 7 7 6 7 6 5 1 2 3 5 6 5 3 4 3 3 2 0 2 4 4 3 3 4 3 3 4 3 2 3 3 5 5 4 3 3 7 9 10 10 10 11 11 12 12 12 12 12 13 13 13 13 13 13 13 13 13 14 14 14 14 14 14 13 14 14 14 14 14 14 15 15 15 15 15 16 17 16 16 16
4 4 6 3 2 3 4 4 2 0 1 1 3 3 5 4 4 3 3 3 5 5 2 2 6 6 5 3 4 4 4 4 3 3 3 3 3 4 5 4 4 4 4 9 11 11 12 12 12 13 13 13 13 14 14 15 14 14 14 14 14 14 14 15 15 14 14 13 13 13 13 13 13 13 14 14 14 14 14 14 14 14 14 15 15
4 6 1 3 2 2 3 1 1 4 4 4 4 5 5 4 3 2 3 5 4 4 4 4 1 8 6 6 6 5 4 4 3 3 3 3 2 3 3 4 4 4 4 4 7 12 13 13 13 13 14 14 14 14 15 15 15 15 15 15 15 15 15 15 15 14 13 14 14 14 13 13 13 13 13 13 13 12 12 12 13 13 13 13 13
4 2 4 2 1 3 2 3 3 4 5 4 3 4 5 4 1 1 5 4 5 5 1 6 1 3 2 5 5 5 5 4 4 5 4 3 3 3 3 4 4 4 5 5 5 6 13 14 14 14 14 14 14 15 15 15 16 16 16 15 15 15 15 15 14 13 13 14 13 12 12 13 13 13 12 13 12 12 11 11 12 12 13 13 13
2 3 3 1 2 2 4 4 3 4 3 3 4 4 3 4 4 3 3 3 4 6 7 5 5 2 4 7 7 6 6 6 6 5 4 5 4 4 4 5 5 7 5 5 5 5 9 14 14 15 15 15 15 16 16 16 16 16 15 15 15 15 15 15 14 13 13 13 12 12 12 13 12 12 13 12 12 11 10 11 11 11 11 12 12
3 3 1 1 2 3 3 3 3 4 3 3 3 3 3 2 4 3 4 4 5 6 6 6 3 2 3 3 7 9 7 6 6 4 5 6 6 6 7 6 6 7 6 5 6 6 6 10 15 15 16 16 16 15 15 15 15 16 15 15 15 15 16 15 14 13 13 12 12 12 12 12 12 11 11 10 10 10 10 10 10 11 11 11 12
3 2 3 2 3 2 3 2 2 3 2 3 4 4 3 4 4 4 4 2 3 4 3 4 4 2 3 1 2 8 8 8 7 6 7 8 7 8 5 6 6 6 7 7 7 7 7 7 7 7 9 17 16 16 15 15 15 14 15 15 15 15 16 15 14 13 12 11 11 11 11 10 10 10 10 10 9 9 10 10 10 11 12 12 12
3 2 2 2 2 2 2 2 2 2 2 2 3 4 4 4 5 4 5 5 4 5 4 6 3 4 4 2 1 2 8 9 7 8 7 5 6 5 7 6 6 7 7 8 7 7 7 7 6 7 7 10 15 16 15 15 13 13 14 14 14 15 16 15 14 13 11 10 11 10 9 9 9 9 9 9 9 10 9 10 11 11 12 12 12
2 2 3 2 1 1 2 2 0 2 1 1 0 2 2 2 2 2 4 5 3 4 6 3 5 3 4 4 3 2 0 3 6 4 5 6 6 6 6 5 7 6 7 7 7 8 7 7 6 6 7 6 8 12 14 14 14 14 14 13 13 14 15 14 12 11 10 10 9 8 8 8 7 8 8 8 9 10 10 10 11 12 12 12 12
2 2 2 2 2 1 2 2 1 1 1 1 1 2 3 3 3 3 2 3 1 2 5 3 3 1 1 3 5 5 2 1 1 3 5 6 8 8 6 7 6 7 6 6 7 7 8 7 6 6 7 6 7 6 6 8 10 15 15 13 12 13 13 12 10 9 8 8 7 7 7 6 7 8 8 8 9 10 11 11 12 12 12 12 11
3 2 2 2 2 1 2 2 2 1 1 1 2 3 3 3 3 2 2 2 1 1 3 2 0 1 0 2 1 2 4 4 3 2 3 5 3 6 6 3 6 8 8 6 6 5 6 6 6 7 7 7 6 6 6 6 7 10 11 12 13 13 11 10 8 7 7 7 5 6 6 6 6 7 8 8 9 10 10 11 11 12 12 12 12
3 2 1 1 1 2 1 1 2 1 2 1 1 2 2 3 2 1 1 2 3 2 1 2 0 2 1 0 0 0 0 1 2 5 1 4 3 3 6 8 11 11 6 6 5 6 6 5 5 7 7 7 6 5 6 6 8 9 10 11 11 10 8 7 7 7 7 4 4 5 6 6 6 6 7 8 9 10 10 10 10 11 11 12 12
3 3 3 3 2 2 2 1 1 1 1 1 1 1 1 1 1 2 2 1 2 1 2 3 3 1 2 1 1 2 1 2 1 5 1 1 3 3 1 4 6 6 7 6 6 7 7 7 8 8 8 7 6 7 6 6 6 5 7 9 9 6 6 5 6 7 5 3 4 4 5 5 6 6 7 9 9 9 9 10 10 11 11 11 12
4 3 3 3 3 2 2 2 1 1 1 2 1 0 1 0 2 2 2 0 2 3 3 3 2 4 4 2 3 1 1 2 2 2 5 1 3 1 1 2 2 1 4 6 7 6 5 6 7 7 6 7 7 5 6 5 4 5 4 4 5 5 5 5 6 6 4 4 3 4 5 5 5 6 7 8 9 9 9 9 10 10 11 11 12
3 3 3 3 3 2 2 2 1 0 0 1 1 2 1 1 2 2 2 1 1 2 2 3 4 3 3 2 2 1 1 1 1 0 3 5 3 3 3 3 2 1 1 3 2 3 4 2 2 2 3 3 3 5 4 5 6 5 5 5 6 6 5 5 6 6 5 3 3 3 4 5 6 6 6 7 7 7 8 9 9 10 10 12 12
4 3 3 3 3 3 2 2 1 1 0 2 3 2 0 1 2 1 2 1 1 2 0 2 3 2 1 3 2 1 2 1 1 1 2 1 6 5 2 3 4 2 2 1 4 4 3 2 1 3 4 4 3 2 2 3 3 3 4 6 6 5 4 5 7 7 5 4 3 3 4 5 6 6 6 7 7 7 8 8 9 10 11 11 12
4 4 3 3 3 3 2 1 1 1 1 2 2 2 3 3 2 2 1 0 0 1 1 0 1 0 2 2 3 3 3 2 2 2 1 0 3 1 5 5 3 2 1 2 2 2 3 3 3 4 3 2 1 2 1 1 1 3 3 6 6 6 6 7 8 8 5 5 4 4 4 5 6 6 7 7 7 8 9 9 9 10 10 11 11
3 3 4 3 3 3 3 3 3 2 2 3 2 3 2 2 2 2 1 1 1 0 1 1 1 1 0 1 2 2 3 2 2 2 1 0 1 4 3 3 5 6 5 3 1 1 2 2 3 3 3 3 3 2 1 0 1 3 4 7 7 8 7 8 9 9 6 5 6 5 3 4 6 6 7 7 7 8 9 10 10 10 10 11 11
4 4 4 4 4 3 4 4 3 2 2 3 3 4 2 2 2 2 1 2 2 0 1 1 1 1 1 0 0 1 1 0 2 2 0 1 2 3 3 2 3 5 5 4 4 3 2 3 2 1 1 2 2 2 2 2 2 4 7 8 9 8 8 9 10 9 8 7 7 5 2 3 5 6 6 7 7 8 9 9 10 10 11 11 10
4 4 4 4 4 4 4 4 4 3 4 4 3 3 3 3 3 3 3 2 1 0 0 2 2 2 2 1 2 2 2 3 3 2 2 3 2 3 4 3 3 2 5 5 2 2 3 3 3 2 2 2 3 2 2 2 4 6 5 7 9 9 9 10 10 10 9 9 8 4 1 3 5 5 5 6 6 7 8 8 9 10 11 11 10
4 4 5 5 4 4 4 5 4 4 4 4 3 3 3 4 4 4 3 3 3 3 2 2 2 2 3 2 1 2 3 4 3 3 3 2 2 2 3 2 3 3 3 1 1 4 3 4 4 4 4 4 3 3 3 3 4 5 5 5 8 9 10 10 11 10 10 10 8 4 3 4 4 5 4 5 6 6 7 7 8 9 10 11 10
5 5 6 5 4 5 5 5 5 4 4 5 4 4 3 4 3 4 4 4 2 3 3 2 2 3 2 3 3 4 4 4 4 3 3 2 2 3 3 2 1 3 3 1 1 2 3 3 3 4 4 4 4 3 3 4 4 7 7 6 7 9 10 11 11 11 11 12 10 6 5 5 4 4 3 4 4 5 6 6 7 8 9 9 10
6 6 5 6 6 5 5 5 5 4 4 4 4 4 4 3 3 4 3 3 3 3 3 3 4 4 3 2 4 3 5 5 3 4 3 4 3 3 2 4 4 2 2 2 3 2 4 3 4 4 5 4 4 4 4 3 6 9 9 5 6 10 11 11 11 12 13 13 12 8 6 6 5 4 2 3 3 4 5 5 6 7 7 8 10
6 5 6 6 6 6 6 6 5 5 4 4 4 4 3 3 3 3 4 2 3 3 5 4 4 4 4 3 2 4 4 4 3 4 4 4 4 3 2 3 4 5 3 3 2 3 3 1 3 4 4 4 5 4 5 6 6 10 9 5 6 7 10 11 12 13 14 14 12 7 7 6 5 5 3 3 3 4 4 4 5 6 6 7 8
6 5 5 5 6 6 6 6 5 5 4 4 5 4 3 4 4 4 4 3 3 4 4 4 4 4 4 4 4 4 4 3 2 3 3 2 1 2 2 4 4 3 2 2 3 2 2 1 1 3 2 3 5 5 5 5 7 8 5 5 5 6 9 11 12 13 14 14 10 7 6 6 4 4 4 2 2 3 3 3 4 4 5 6 7
7 6 6 6 6 7 7 7 6 5 6 5 5 5 4 5 5 4 4 3 3 3 3 3 4 4 4 3 3 4 4 3 4 3 3 1 1 2 4 5 4 2 3 3 5 3 4 2 2 2 2 4 4 5 4 6 8 7 5 5 6 6 11 12 12 13 13 13 8 8 8 6 5 5 4 2 1 1 1 1 2 3 4 5 6
7 7 6 6 7 7 7 7 6 7 6 6 6 6 5 5 4 5 4 3 4 4 4 3 4 3 3 4 4 4 5 5 4 3 3 0 3 4 5 5 5 4 5 3 2 4 3 3 4 3 2 4 4 4 5 5 7 7 5 4 5 8 10 8 12 13 11 9 9 10 10 8 6 5 4 3 2 2 2 0 1 2 3 4 5
7 7 6 6 6 7 7 8 7 6 7 7 6 6 6 6 5 5 5 4 5 5 5 4 3 4 3 4 4 4 4 4 4 4 3 1 1 3 5 5 4 3 4 3 3 7 3 3 5 5 4 3 5 5 5 5 5 7 4 5 4 5 4 5 8 9 9 9 10 11 11 9 8 6 5 4 3 3 2 1 0 2 3 3 4
7 6 6 6 7 7 8 7 7 7 7 7 6 6 6 6 6 6 6 5 5 5 4 5 3 4 4 4 4 3 3 4 4 2 2 3 2 1 2 2 3 3 4 4 4 7 5 3 4 3 3 3 3 1 4 5 5 5 5 4 4 3 3 4 4 7 9 10 11 10 10 9 9 8 7 6 5 5 3 2 1 1 2 3 3
6 7 5 2 3 6 8 8 7 7 7 7 8 6 6 6 6 5 6 5 4 3 2 3 3 2 3 3 3 4 4 2 2 0 1 1 1 2 3 2 3 3 4 4 5 4 5 2 3 3 3 0 3 2 3 5 6 5 6 5 5 4 4 2 3 3 4 6 8 9 10 9 9 9 8 8 8 6 5 3 2 2 1 3 3
6 7 7 8 7 7 7 7 7 7 6 7 7 6 6 7 7 6 5 5 5 4 3 2 1 1 2 1 1 2 2 2 3 2 2 3 3 3 3 3 4 5 4 5 3 4 6 6 4 3 2 2 2 5 4 3 4 4 5 5 4 3 0 1 2 2 4 5 7 9 10 10 9 9 9 9 8 7 6 4 2 2 1 2 3
8 7 9 9 9 8 8 8 8 7 7 6 6 7 7 7 6 6 5 5 5 4 3 3 3 3 3 3 4 3 3 4 4 3 3 4 4 4 5 5 4 4 4 3 4 5 3 4 3 3 2 2 4 4 4 4 4 5 3 4 3 3 2 1 1 2 2 4 7 8 9 9 9 9 9 9 9 8 7 6 5 3 2 3 3
2 3 4 6 9 8 9 9 8 8 8 7 6 5 5 6 7 6 5 4 5 4 4 4 4 4 4 4 3 2 2 3 3 4 4 3 4 4 5 5 3 3 2 3 3 3 4 5 5 3 2 3 4 5 3 4 5 4 3 3 3 4 4 2 2 2 2 3 4 7 8 8 8 8 9 9 8 8 7 7 6 5 4 4 4
2 2 3 4 4 6 8 9 9 9 8 7 6 6 6 5 5 5 5 5 5 5 4 4 4 4 3 4 5 5 5 5 5 4 4 5 4 4 5 3 3 2 2 3 3 3 4 5 3 5 2 4 3 3 3 3 5 6 6 5 4 4 3 4 3 2 1 2 2 3 4 6 7 8 9 9 9 9 8 8 7 7 5 5 5
3 2 2 2 1 5 6 5 6 7 7 7 7 7 6 6 6 6 5 4 3 4 3 3 4 4 4 5 5 6 6 6 6 5 3 3 3 4 3 3 2 2 2 3 3 4 4 4 3 4 5 4 3 5 4 2 3 3 4 6 6 3 2 2 4 3 2 4 3 5 5 6 7 7 10 11 10 10 10 9 8 7 6 5 6
2 2 1 1 0 1 2 3 0 1 1 1 1 4 5 6 6 5 4 4 1 7 7 5 6 5 5 5 6 6 6 5 4 3 2 2 2 3 3 2 2 2 3 4 4 4 5 4 4 6 3 4 5 3 3 3 4 4 3 4 6 7 6 2 3 5 3 2 5 4 3 5 6 9 9 8 9 10 9 7 7 6 7 6 6
1 0 1 3 3 4 4 5 5 5 5 4 3 2 1 2 3 4 3 3 6 6 7 5 3 2 3 4 4 4 4 6 7 5 5 4 2 3 3 2 3 3 4 3 4 4 4 4 7 5 6 6 5 5 6 4 5 7 4 1 4 5 6 7 7 4 5 6 4 4 4 3 3 4 4 5 6 7 7 7 5 8 7 7 7
1 1 1 2 3 5 6 5 5 5 4 3 5 8 7 2 1 2 3 5 6 4 2 4 6 3 2 2 3 8 8 8 7 5 4 4 5 3 2 2 3 3 3 3 3 3 4 6 6 6 7 7 6 5 5 4 5 3 5 4 5 6 6 7 6 3 2 2 3 5 6 3 4 3 3 6 5 7 4 6 6 7 8 8 8
1 1 2 3 4 4 5 5 5 4 4 3 6 6 7 8 4 2 2 4 5 5 6 6 4 3 4 2 1 3 3 5 5 6 7 7 8 8 9 7 5 3 1 4 4 3 3 5 5 5 6 7 6 4 5 5 3 3 3 4 5 5 5 6 7 5 1 1 3 2 5 1 3 5 5 6 6 6 6 7 9 11 10 10 9
1 1 2 4 5 6 5 6 6 4 3 6 5 4 5 6 6 1 0 3 4 5 5 5 4 2 1 0 1 3 3 2 5 6 7 9 9 9 8 8 6 4 3 4 4 5 5 4 4 5 6 8 7 5 5 4 5 5 4 4 5 6 6 6 4 6 4 0 2 4 8 3 3 5 6 6 6 7 8 10 13 12 12 12 10
1 1 2 5 6 5 6 6 4 3 2 6 4 3 2 9 2 3 4 3 4 4 3 0 3 6 7 7 6 5 6 12 8 7 6 6 9 10 9 9 9 8 4 5 6 6 5 5 5 5 5 6 6 5 6 4 3 6 5 5 5 5 5 7 7 6 6 1 6 7 9 5 2 4 6 6 6 7 8 11 15 14 13 12 10
2 2 4 5 5 5 5 5 5 3 4 8 8 5 2 2 4 5 3 1 3 3 5 7 6 4 2 3 5 6 6 7 7 7 5 5 5 5 5 5 5 9 11 11 9 9 6 4 4 4 5 5 6 6 6 4 5 6 6 7 6 8 8 8 7 7 6 2 6 3 6 7 3 5 6 6 4 5 7 11 17 16 14 13 11
2 3 4 6 5 6 5 5 5 5 4 9 7 5 3 3 6 6 4 6 5 6 6 6 5 5 6 7 5 6 6 6 5 8 6 5 5 4 5 5 5 5 6 7 7 6 5 4 4 5 6 6 6 7 7 6 5 6 6 7 7 8 7 7 7 6 4 5 4 1 4 4 6 7 6 6 5 5 5 4 11 12 13 12 10
4 5 7 7 7 6 6 5 5 4 4 8 7 7 7 6 4 5 6 6 6 5 5 5 5 7 8 7 6 4 3 4 8 10 8 4 4 5 5 5 5 5 6 6 6 6 6 4 4 5 5 7 8 8 8 6 5 6 7 7 6 7 7 6 6 3 1 5 7 4 3 4 6 6 6 4 4 5 6 7 6 5 3 4 4
7 8 7 7 6 7 7 6 5 5 5 9 9 9 9 9 6 5 6 6 6 6 6 6 7 8 7 5 5 4 4 4 6 7 7 6 4 5 4 4 4 5 7 7 9 10 11 11 11 11 11 12 12 12 13 13 10 6 5 5 5 6 7 6 5 4 4 5 6 6 2 3 6 5 5 4 4 3 5 4 4 5 7 11 10
8 7 7 8 7 7 7 7 6 6 7 9 10 10 10 10 7 6 6 7 6 6 6 6 5 5 7 13 8 5 5 4 5 6 7 4 5 5 5 4 5 6 7 6 4 5 9 9 10 10 11 11 12 12 13 14 14 11 6 5 6 6 5 4 4 4 3 6 6 8 4 4 5 5 5 2 4 3 3 3 3 4 5 5 8
7 6 7 8 7 6 6 6 10 8 6 7 11 11 12 11 8 6 6 7 8 6 5 5 5 5 5 8 11 8 5 4 6 6 7 6 5 5 4 4 6 6 5 5 5 6 5 6 7 6 8 10 8 7 9 15 16 13 7 6 6 5 5 5 5 5 2 5 6 9 4 5 6 6 6 3 2 2 2 2 2 3 3 2 2
Wind_Direction
230 244 255 263 277 275 281 267 264 262 256 257 238 250 249 241 237 237 231 242 251 258 256 257 243 226 225 198 167 162 165 171 169 167 168 171 185 198 188 190 192 196 199 203 203 207 206 212 218 228 239 249 255 263 270 274 276 282 286 288 290 292 293 294 294 294 293 291 291 291 291 292 293 293 291 291 292 295 295 295 294 293 292 290 289
242 263 252 270 273 275 272 264 257 258 244 251 241 239 246 238 237 234 231 229 223 240 243 259 257 240 212 183 172 169 166 168 168 165 166 173 191 212 198 195 197 202 207 212 217 219 221 226 233 239 249 258 263 265 270 274 277 281 284 285 286 287 289 289 289 289 289 289 288 289 290 290 291 293 293 293 294 295 294 294 294 294 293 292 290
234 245 249 254 260 261 257 264 263 256 239 245 244 243 251 243 216 210 218 223 214 221 223 231 248 250 190 177 167 149 161 162 153 152 160 175 184 207 232 204 206 212 217 224 227 231 237 241 246 251 253 256 259 264 268 271 273 276 279 281 281 281 282 283 283 284 284 285 286 288 289 289 289 291 293 292 291 292 292 292 292 293 293 293 292
266 260 256 260 258 253 255 248 253 253 250 239 234 224 237 273 307 329 32 28 302 235 204 220 204 171 213 174 142 152 156 159 168 163 156 166 177 194 221 227 212 216 224 229 234 237 243 247 250 251 251 251 254 258 261 265 269 272 275 276 277 278 280 281 281 282 284 287 288 289 289 289 290 290 291 291 291 290 291 292 292 293 293 295 295
255 248 245 225 234 248 255 240 239 232 212 272 14 341 2 343 320 336 347 356 350 333 164 264 200 169 203 150 149 162 159 163 168 153 166 175 180 185 196 208 222 224 224 228 233 236 240 244 248 251 254 257 260 261 262 265 266 267 269 270 271 274 277 279 282 284 286 288 290 290 289 290 292 293 291 292 293 294 295 295 297 298 298 296 296
245 276 238 174 187 189 209 200 224 310 29 332 12 8 339 319 303 3 338 13 4 334 314 182 224 150 183 152 161 173 172 170 169 190 172 194 195 190 194 204 208 214 230 231 233 238 241 245 248 251 255 258 261 262 264 265 266 266 265 266 268 270 273 277 281 283 286 287 289 290 292 294 294 294 294 295 294 296 297 299 299 298 296 295 294
232 227 170 42 2 28 21 316 38 31 24 6 15 350 330 315 328 18 357 18 352 346 353 332 226 153 190 154 170 172 175 167 167 198 191 200 200 211 201 218 222 224 226 226 238 238 240 244 247 250 253 255 257 260 262 262 263 264 264 264 266 269 272 276 278 280 283 286 289 292 295 296 296 296 297 297 300 302 303 301 299 297 295 292 291
203 175 66 41 346 40 347 29 22 43 32 4 14 346 313 300 285 67 32 354 357 331 33 13 7 154 161 152 167 164 169 164 181 202 191 186 218 207 202 212 226 236 231 230 232 238 238 239 243 247 249 251 254 256 258 259 260 261 263 264 266 269 271 273 275 278 281 286 289 292 295 295 297 299 302 306 307 307 305 302 299 298 297 295 294
123 85 100 65 53 41 31 38 28 56 44 9 15 321 344 335 8 355 72 1 359 343 360 9 333 128 131 154 161 157 171 184 190 194 167 199 209 211 205 211 217 222 230 227 232 235 242 241 242 245 248 250 250 251 252 255 257 260 262 264 266 267 269 271 274 277 282 285 287 292 294 296 297 303 309 309 309 307 306 305 303 300 298 299 300
96 102 108 84 58 72 56 40 46 53 43 33 343 351 359 2 24 342 17 31 15 7 338 332 315 23 105 129 166 174 174 178 195 182 183 198 200 208 206 209 205 212 221 227 225 228 228 239 241 244 247 248 248 248 249 251 253 257 262 264 266 267 269 271 273 276 281 285 289 292 293 295 302 307 311 310 306 307 307 306 305 304 303 303 307
121 126 104 75 58 56 64 56 56 64 65 42 10 5 349 24 33 4 12 38 43 351 312 288 351 355 63 356 177 157 173 180 189 183 198 201 199 204 192 212 212 210 213 220 226 224 226 226 225 230 240 243 245 247 247 249 250 252 256 260 264 267 270 272 273 275 280 285 288 291 294 300 304 308 310 306 309 310 310 311 310 310 310 309 311
132 136 127 116 101 99 77 50 73 89 81 57 22 11 1 5 5 17 8 4 1 6 348 4 5 33 19 350 279 134 159 177 186 197 193 200 211 199 206 208 212 217 213 218 221 228 229 228 224 231 237 243 243 247 248 248 247 247 248 252 258 262 266 269 271 275 280 283 288 292 297 302 306 310 305 308 311 316 317 322 321 318 317 317 315
139 149 150 128 136 102 83 71 34 84 77 97 114 341 351 7 14 4 28 29 336 346 7 39 48 2 353 4 335 349 320 147 183 183 197 210 203 204 217 209 219 221 223 217 220 225 226 230 229 231 240 245 250 249 249 251 252 254 254 251 253 260 264 267 270 274 277 281 288 294 299 302 307 310 312 315 314 321 327 329 326 323 323 323 324
171 174 132 137 141 126 129 160 151 94 92 359 13 358 9 10 25 15 15 53 347 354 342 31 26 100 2 326 343 331 332 22 109 196 210 197 203 204 200 211 224 226 236 229 227 224 229 225 227 233 237 240 246 248 248 251 252 252 253 251 252 256 259 265 267 266 269 281 290 297 299 308 315 316 321 321 324 332 336 333 329 328 329 332 329
182 167 140 169 155 135 178 182 168 175 75 14 12 355 359 8 18 79 345 360 342 319 355 41 155 103 11 76 339 3 327 4 335 331 346 294 205 201 174 180 239 225 215 223 235 239 241 234 230 234 240 242 246 248 250 248 244 245 249 248 248 254 262 269 270 271 272 276 289 295 308 321 321 323 325 327 334 340 339 335 331 330 331 333 334
194 188 165 183 163 160 185 173 162 158 148 149 338 322 352 358 30 48 120 25 2 316 309 24 107 127 4 35 248 95 6 313 327 296 303 305 34 142 180 207 221 226 183 209 224 234 243 241 233 233 239 243 247 251 250 248 248 249 244 242 242 249 254 256 263 267 266 277 293 302 314 319 325 325 331 335 340 341 339 335 333 337 333 336 339
196 189 180 181 164 152 171 156 188 187 159 147 258 262 337 278 136 92 88 137 9 322 310 1 358 108 143 72 1 20 230 244 306 286 25 305 341 4 220 233 251 236 189 191 205 216 219 220 225 223 229 236 244 242 243 245 245 242 234 232 233 229 232 239 256 263 264 278 293 304 309 319 322 326 335 340 342 342 337 335 334 337 337 342 342
194 188 187 171 165 177 200 175 172 154 212 226 238 346 299 238 171 147 101 93 141 44 346 328 17 45 99 161 166 171 272 280 71 315 318 263 308 295 126 317 337 97 179 209 226 227 215 222 218 221 219 223 240 245 235 234 234 229 214 212 216 217 221 223 241 252 251 272 288 298 312 317 319 323 337 341 341 339 335 332 339 340 345 347 343
193 185 184 182 171 184 195 207 176 247 236 194 298 274 229 201 130 116 140 132 89 75 28 295 344 14 40 34 60 91 158 59 301 357 352 317 330 338 340 340 4 54 252 264 273 220 237 247 243 235 243 244 208 205 218 231 227 219 205 209 209 214 215 225 236 241 244 261 280 294 306 310 313 321 335 338 337 330 334 336 337 346 348 347 348
186 189 178 187 180 205 193 205 205 251 295 205 238 244 189 146 122 147 123 103 134 124 342 352 92 297 357 35 19 56 23 55 120 151 178 304 317 326 300 326 344 32 310 251 232 236 241 281 283 242 221 223 211 200 220 219 202 197 205 210 212 213 221 227 234 233 236 248 263 276 289 302 311 325 333 338 332 330 331 336 343 349 352 352 353
192 187 185 180 200 198 197 207 224 257 261 264 230 205 167 148 130 120 150 214 181 196 110 300 102 354 8 349 13 18 1 56 64 79 118 120 285 297 310 324 348 316 328 268 287 256 223 233 231 238 244 255 287 250 232 173 187 193 216 218 213 217 217 226 234 237 234 240 249 258 276 296 311 330 336 337 340 337 340 342 347 350 354 358 354
213 203 187 190 194 193 193 203 223 223 246 225 212 220 164 165 170 168 168 264 349 147 215 265 240 284 69 152 43 344 12 8 23 43 16 113 235 291 297 323 331 301 321 320 284 314 329 283 253 261 261 253 255 288 316 336 190 204 228 220 215 218 217 229 240 240 235 242 248 252 270 299 318 329 333 338 341 346 344 343 347 349 355 3 354
206 212 203 197 199 195 200 209 215 208 232 215 211 206 198 188 197 188 184 190 232 273 11 14 20 335 297 185 189 178 180 214 275 298 223 277 336 303 305 278 266 312 296 299 324 342 315 302 275 255 243 275 286 301 300 275 263 245 225 217 220 221 223 232 241 243 242 247 252 255 278 314 320 325 331 337 342 349 344 345 346 349 356 1 359
205 204 213 209 198 207 212 216 219 217 223 220 218 205 196 186 190 194 202 198 207 219 34 335 327 329 312 255 232 202 204 211 235 213 194 230 187 267 287 302 330 254 272 304 303 319 305 303 310 299 269 246 249 234 265 274 263 263 239 230 225 226 229 238 245 245 242 247 247 250 284 302 306 314 329 333 340 348 344 347 349 354 357 0 7
214 209 219 212 203 207 220 221 229 221 221 214 222 216 198 195 200 210 204 202 201 197 207 230 235 260 276 285 242 235 238 238 226 225 230 189 174 260 267 206 230 294 289 344 291 300 261 279 286 288 299 296 275 261 261 271 272 280 256 248 238 235 236 241 246 248 247 248 243 235 235 260 287 300 321 325 331 341 345 348 355 2 360 3 3
205 213 212 210 209 211 212 220 221 221 212 207 210 204 188 193 200 208 219 230 215 203 215 233 237 248 229 266 281 251 254 244 239 228 245 245 251 221 270 323 258 265 286 335 293 359 315 287 270 267 282 272 273 270 266 268 281 269 252 249 257 248 245 244 247 250 250 251 248 225 225 238 257 277 294 310 324 337 347 350 2 11 8 5 2
207 215 212 206 210 213 215 219 221 222 217 206 211 203 197 197 194 212 223 225 229 224 235 229 251 262 262 238 261 269 261 262 244 245 220 222 214 225 171 283 316 338 313 310 324 266 242 289 283 288 259 271 288 290 283 273 265 264 257 245 252 253 245 244 246 248 250 252 248 229 219 234 242 258 264 297 318 331 350 357 10 16 15 4 8
221 207 218 205 209 213 215 221 219 216 216 208 205 206 211 205 222 214 226 209 212 225 235 236 250 257 262 264 252 268 273 263 241 238 232 229 236 232 181 215 240 290 322 307 327 286 265 274 308 274 286 289 283 280 274 271 268 271 274 254 253 259 255 242 240 245 250 252 250 224 221 234 243 257 259 283 313 327 344 5 12 22 18 11 18
227 220 217 206 215 214 215 222 217 212 212 209 201 207 211 218 222 228 232 236 211 225 236 236 251 254 262 262 258 261 269 275 276 269 269 281 320 327 357 254 204 210 274 296 278 257 301 268 279 297 285 282 284 279 274 262 263 265 269 257 252 252 257 245 239 244 250 254 252 232 225 235 231 246 252 269 294 306 338 7 16 22 17 19 26
214 217 214 205 208 212 209 211 210 204 209 205 202 205 199 215 224 224 225 223 236 252 250 240 245 243 249 270 267 272 266 266 261 265 272 175 118 259 219 224 171 186 203 255 281 234 267 298 221 254 304 301 278 283 262 263 264 264 260 257 250 249 250 247 242 246 251 256 252 222 222 217 222 237 234 222 254 285 331 19 32 23 25 27 31
217 220 216 207 204 206 200 202 200 205 206 207 205 205 201 213 220 228 235 225 232 246 249 233 245 238 252 272 291 293 290 284 286 277 290 228 178 192 222 187 195 188 194 192 256 281 201 256 278 252 263 292 301 304 294 288 291 299 294 280 264 256 256 258 253 253 261 266 234 215 215 215 212 216 201 205 207 245 247 208 100 63 45 43 45
214 212 203 203 202 199 198 201 201 205 205 213 208 209 207 210 212 216 224 211 220 232 246 235 238 226 232 254 266 269 275 265 262 269 250 217 199 184 186 199 213 175 158 157 200 261 250 243 272 286 288 290 304 299 306 314 315 323 320 316 304 285 239 242 256 255 251 241 225 217 212 208 203 200 199 191 177 223 239 232 176 86 71 65 60
218 220 212 198 195 198 196 201 205 203 206 213 212 211 207 214 215 217 220 213 222 240 246 264 258 243 236 232 248 262 273 267 270 306 342 312 286 253 240 209 204 184 173 182 216 262 285 250 241 261 303 326 305 318 332 323 320 327 337 325 321 301 270 254 261 258 245 228 222 217 212 207 201 195 191 184 183 193 215 240 274 56 79 86 86
213 222 199 202 230 207 198 203 204 204 208 212 214 209 210 215 225 219 221 214 213 223 210 258 277 308 4 314 299 310 332 328 19 331 261 285 275 300 288 243 237 228 204 173 215 218 262 304 299 293 285 273 291 277 312 315 315 322 324 323 320 319 304 297 273 287 278 247 227 217 213 211 202 196 191 186 185 187 193 209 271 296 89 110 123
214 205 188 199 211 215 211 206 205 206 205 212 214 209 211 211 218 222 212 204 204 196 186 189 174 154 187 196 297 300 254 289 299 297 312 299 301 282 259 234 240 245 215 206 194 240 256 268 248 267 256 290 237 279 297 287 289 289 298 306 309 300 303 236 306 274 261 239 221 214 213 212 204 199 192 188 183 182 186 177 211 264 207 155 169
211 202 196 199 202 202 210 209 208 214 211 212 213 209 209 207 209 212 200 193 190 194 197 199 177 163 196 220 219 223 248 256 267 282 273 269 279 274 272 262 229 239 223 205 220 222 247 260 283 232 266 274 282 269 274 288 288 294 269 285 299 296 305 326 319 318 293 233 221 217 218 216 210 203 194 190 187 182 184 180 182 202 223 225 201
194 208 235 212 196 195 204 205 208 210 211 208 202 195 198 201 204 200 194 194 202 207 211 217 195 186 200 206 223 228 211 230 243 243 250 267 271 281 278 269 237 235 222 204 232 226 238 254 278 290 286 280 263 285 289 296 307 299 294 296 297 302 294 292 301 251 319 336 258 230 225 224 215 205 197 196 190 185 188 188 183 192 206 229 223
66 80 163 207 234 217 205 203 204 207 206 200 190 189 190 187 191 193 195 201 207 206 216 225 219 217 191 187 206 214 210 214 232 238 245 246 256 261 260 269 270 238 250 266 254 243 229 249 250 295 309 275 311 289 292 297 296 307 316 313 318 303 293 301 292 271 235 207 220 208 231 234 222 211 202 199 196 190 194 196 191 189 192 220 233
93 105 63 52 207 202 225 226 217 211 199 192 189 187 186 185 189 193 200 209 210 212 229 242 235 218 205 207 214 211 214 218 226 231 239 273 300 314 304 287 274 258 261 275 277 263 253 266 278 245 270 277 258 291 305 311 285 273 286 310 307 300 311 262 290 272 263 264 250 228 219 207 203 204 208 207 199 194 195 200 199 192 184 199 224
119 137 159 157 95 40 244 209 124 62 69 101 188 195 188 188 186 193 199 200 167 44 16 306 278 254 221 213 213 216 220 221 222 242 226 265 297 298 299 322 328 320 306 302 295 280 280 283 272 290 272 288 306 281 301 333 325 312 246 242 278 293 296 283 243 289 284 255 275 280 248 209 211 209 208 213 210 201 198 199 204 196 187 193 213
103 234 230 153 119 93 81 95 103 97 96 67 30 360 228 188 173 180 181 131 107 173 205 250 282 259 219 211 216 225 231 233 227 219 216 226 226 272 284 266 271 269 269 274 269 272 297 308 297 289 294 296 286 295 303 295 276 269 280 272 274 276 295 307 297 263 250 267 273 270 264 217 197 201 191 209 218 201 203 193 198 203 192 194 211
152 266 50 116 114 122 116 99 91 92 86 82 38 25 22 3 201 162 138 135 164 164 172 249 261 268 266 220 233 235 238 250 263 273 308 330 319 286 253 222 237 246 254 273 271 275 272 267 265 283 288 282 280 271 273 268 278 305 325 326 301 303 315 299 290 277 288 277 286 286 277 245 206 218 192 223 221 206 174 192 197 192 192 194 207
81 74 102 108 103 88 84 87 77 59 49 44 50 59 44 14 16 38 114 152 158 151 187 214 242 235 225 226 269 321 345 18 25 18 16 5 1 356 347 327 300 268 357 305 289 269 240 255 271 282 281 283 281 287 283 292 301 311 299 301 294 308 303 306 308 312 293 324 297 302 300 279 193 228 221 228 215 210 201 207 192 191 185 188 196
86 70 106 122 107 93 90 89 80 72 60 24 8 38 94 68 18 345 214 184 177 181 196 210 226 224 221 307 25 29 9 13 47 18 4 1 359 349 342 341 339 303 211 241 284 301 288 298 305 297 299 290 293 303 303 307 302 300 289 296 289 289 291 287 286 290 273 348 298 293 283 264 220 239 244 230 216 208 210 195 188 188 185 186 187
90 92 64 86 96 98 102 98 79 66 65 11 347 1 6 90 82 290 264 228 184 182 202 186 29 11 5 359 326 33 23 31 28 13 3 347 344 346 354 357 356 21 11 300 267 264 285 307 302 301 296 314 317 316 315 304 313 299 296 291 294 283 278 284 284 284 291 40 300 287 284 280 205 260 258 244 217 211 207 188 185 186 183 182 179
56 54 76 86 83 83 83 86 91 54 41 359 344 337 24 142 188 211 220 212 106 85 77 72 76 64 32 6 7 35 25 26 14 3 353 346 339 341 353 1 9 46 61 39 26 20 17 355 335 318 321 329 313 310 311 303 293 291 291 287 274 274 276 280 289 292 285 252 262 299 288 292 282 270 265 278 278 237 207 184 180 180 177 174 177
92 96 96 94 80 68 58 50 58 46 24 354 346 350 329 186 182 174 143 102 94 81 73 77 73 69 67 81 69 35 21 20 10 2 352 345 347 358 9 13 23 53 41 34 11 357 360 348 333 333 338 336 324 322 320 314 288 283 276 269 272 273 280 282 274 255 277 26 23 12 269 321 347 331 321 333 344 347 359 191 170 170 171 166 178
69 76 73 74 74 65 56 53 63 44 359 357 3 13 26 49 75 99 105 101 97 91 80 79 78 74 78 81 83 84 55 21 6 360 355 5 20 24 26 19 34 38 33 22 2 356 9 17 33 39 30 32 35 26 14 354 315 305 301 296 293 296 293 297 294 307 296 68 35 23 332 345 18 345 321 348 27 13 28 53 41 31 319 151 168
63 65 71 73 68 64 50 32 30 24 4 357 360 34 39 32 70 82 89 92 89 87 80 79 89 101 103 94 87 77 59 40 6 358 353 45 47 41 32 37 39 36 16 1 354 8 27 50 43 39 36 26 19 18 17 16 19 349 324 325 342 339 319 313 323 310 26 21 26 4 313 334 9 345 314 353 34 26 37 32 47 38 17 17 4
73 76 87 84 74 73 70 55 37 21 7 351 359 28 42 52 59 72 78 83 78 85 86 75 72 71 80 82 77 61 50 36 7 1 4 49 62 51 42 40 40 31 16 357 350 19 34 40 39 34 32 29 19 11 17 21 27 28 21 23 328 320 334 338 332 329 77 28 20 351 324 9 314 356 322 325 56 39 35 64 36 56 59 29 360
89 83 76 80 77 62 63 74 70 57 5 349 358 29 40 42 57 56 62 74 74 62 74 72 62 65 58 63 69 60 50 31 23 14 11 43 59 41 29 44 39 36 8 346 352 29 35 32 24 24 24 26 23 20 15 22 27 30 27 17 348 4 4 6 1 334 62 4 352 349 349 352 348 359 352 319 67 24 38 47 104 104 83 48 360